Year,Month,Day,Hour,Minute,Value (Times are PST for temperature in C)
2010,10,10,00,00,12.80
2010,10,10,00,01,12.80
2010,10,10,00,02,12.80
2010,10,10,00,03,12.80
2010,10,10,00,04,12.70
2010,10,10,00,05,12.70
2010,10,10,00,06,12.70
2010,10,10,00,07,12.70
2010,10,10,00,08,12.70
2010,10,10,00,09,12.70
2010,10,10,00,10,12.70
2010,10,10,00,11,12.70
2010,10,10,00,12,12.80
2010,10,10,00,13,12.90
2010,10,10,00,14,13.00
2010,10,10,00,15,13.00
2010,10,10,00,16,13.10
2010,10,10,00,17,13.10
2010,10,10,00,18,13.20
2010,10,10,00,19,13.20
2010,10,10,00,20,13.30
2010,10,10,00,21,13.40
2010,10,10,00,22,13.40
2010,10,10,00,23,13.50
2010,10,10,00,24,13.50
2010,10,10,00,25,13.60
2010,10,10,00,26,13.70
2010,10,10,00,27,14.00
2010,10,10,00,28,14.30
2010,10,10,00,29,14.50
2010,10,10,00,30,14.70
2010,10,10,00,31,14.90
2010,10,10,00,32,15.00
2010,10,10,00,33,15.00
2010,10,10,00,34,15.00
2010,10,10,00,35,15.20
2010,10,10,00,36,15.30
2010,10,10,00,37,15.30
2010,10,10,00,38,15.40
2010,10,10,00,39,15.40
2010,10,10,00,40,15.50
2010,10,10,00,41,15.50
2010,10,10,00,42,15.50
2010,10,10,00,43,15.60
2010,10,10,00,44,15.60
2010,10,10,00,45,15.60
2010,10,10,00,46,15.60
2010,10,10,00,47,15.60
2010,10,10,00,48,15.60
2010,10,10,00,49,15.60
2010,10,10,00,50,15.60
2010,10,10,00,51,15.60
2010,10,10,00,52,15.60
2010,10,10,00,53,15.70
2010,10,10,00,54,15.70
2010,10,10,00,55,15.70
2010,10,10,00,56,15.70
2010,10,10,00,57,15.70
2010,10,10,00,58,15.70
2010,10,10,00,59,15.70
2010,10,10,01,00,15.70
2010,10,10,01,01,15.70
2010,10,10,01,02,15.70
2010,10,10,01,03,15.70
2010,10,10,01,04,15.70
2010,10,10,01,05,15.70
2010,10,10,01,06,15.70
2010,10,10,01,07,15.60
2010,10,10,01,08,15.60
2010,10,10,01,09,15.70
2010,10,10,01,10,15.70
2010,10,10,01,11,15.70
2010,10,10,01,12,15.70
2010,10,10,01,13,15.50
2010,10,10,01,14,15.10
2010,10,10,01,15,15.00
2010,10,10,01,16,15.00
2010,10,10,01,17,14.90
2010,10,10,01,18,14.80
2010,10,10,01,19,14.70
2010,10,10,01,20,14.60
2010,10,10,01,21,14.50
2010,10,10,01,22,14.40
2010,10,10,01,23,14.40
2010,10,10,01,24,14.50
2010,10,10,01,25,14.60
2010,10,10,01,26,14.70
2010,10,10,01,27,14.70
2010,10,10,01,28,14.80
2010,10,10,01,29,14.90
2010,10,10,01,30,15.00
2010,10,10,01,31,15.00
2010,10,10,01,32,15.00
2010,10,10,01,33,15.10
2010,10,10,01,34,15.20
2010,10,10,01,35,15.20
2010,10,10,01,36,15.30
2010,10,10,01,37,15.30
2010,10,10,01,38,15.30
2010,10,10,01,39,15.30
2010,10,10,01,40,15.30
2010,10,10,01,41,15.30
2010,10,10,01,42,15.30
2010,10,10,01,43,15.30
2010,10,10,01,44,15.30
2010,10,10,01,45,15.40
2010,10,10,01,46,15.40
2010,10,10,01,47,15.40
2010,10,10,01,48,15.30
2010,10,10,01,49,15.30
2010,10,10,01,50,15.30
2010,10,10,01,51,15.20
2010,10,10,01,52,15.00
2010,10,10,01,53,15.00
2010,10,10,01,54,15.00
2010,10,10,01,55,15.00
2010,10,10,01,56,15.00
2010,10,10,01,57,15.00
2010,10,10,01,58,15.00
2010,10,10,01,59,15.00
2010,10,10,02,00,14.90
2010,10,10,02,01,14.90
2010,10,10,02,02,14.80
2010,10,10,02,03,14.80
2010,10,10,02,04,14.80
2010,10,10,02,05,14.80
2010,10,10,02,06,14.80
2010,10,10,02,07,14.80
2010,10,10,02,08,14.80
2010,10,10,02,09,14.80
2010,10,10,02,10,14.80
2010,10,10,02,11,14.80
2010,10,10,02,12,14.80
2010,10,10,02,13,14.80
2010,10,10,02,14,14.70
2010,10,10,02,15,14.70
2010,10,10,02,16,14.70
2010,10,10,02,17,14.70
2010,10,10,02,18,14.60
2010,10,10,02,19,14.60
2010,10,10,02,20,14.60
2010,10,10,02,21,14.50
2010,10,10,02,22,14.50
2010,10,10,02,23,14.40
2010,10,10,02,24,14.40
2010,10,10,02,25,14.40
2010,10,10,02,26,14.30
2010,10,10,02,27,14.30
2010,10,10,02,28,14.30
2010,10,10,02,29,14.30
2010,10,10,02,30,14.20
2010,10,10,02,31,14.20
2010,10,10,02,32,14.20
2010,10,10,02,33,14.20
2010,10,10,02,34,14.20
2010,10,10,02,35,14.20
2010,10,10,02,36,14.20
2010,10,10,02,37,14.20
2010,10,10,02,38,14.20
2010,10,10,02,39,14.20
2010,10,10,02,40,14.40
2010,10,10,02,41,14.40
2010,10,10,02,42,14.40
2010,10,10,02,43,14.40
2010,10,10,02,44,14.40
2010,10,10,02,45,14.40
2010,10,10,02,46,14.30
2010,10,10,02,47,14.30
2010,10,10,02,48,14.10
2010,10,10,02,49,14.00
2010,10,10,02,50,13.90
2010,10,10,02,51,13.80
2010,10,10,02,52,13.70
2010,10,10,02,53,13.60
2010,10,10,02,54,13.50
2010,10,10,02,55,13.30
2010,10,10,02,56,13.30
2010,10,10,02,57,13.20
2010,10,10,02,58,13.10
2010,10,10,02,59,13.00
2010,10,10,03,00,12.90
2010,10,10,03,01,12.90
2010,10,10,03,02,12.80
2010,10,10,03,03,12.70
2010,10,10,03,04,12.70
2010,10,10,03,05,12.60
2010,10,10,03,06,12.60
2010,10,10,03,07,12.60
2010,10,10,03,08,12.50
2010,10,10,03,09,12.50
2010,10,10,03,10,12.40
2010,10,10,03,11,12.40
2010,10,10,03,12,12.40
2010,10,10,03,13,12.30
2010,10,10,03,14,12.30
2010,10,10,03,15,12.30
2010,10,10,03,16,12.30
2010,10,10,03,17,12.30
2010,10,10,03,18,12.20
2010,10,10,03,19,12.20
2010,10,10,03,20,12.10
2010,10,10,03,21,12.10
2010,10,10,03,22,12.10
2010,10,10,03,23,12.10
2010,10,10,03,24,12.00
2010,10,10,03,25,12.00
2010,10,10,03,26,11.90
2010,10,10,03,27,11.90
2010,10,10,03,28,11.90
2010,10,10,03,29,11.90
2010,10,10,03,30,11.80
2010,10,10,03,31,11.80
2010,10,10,03,32,11.80
2010,10,10,03,33,11.80
2010,10,10,03,34,11.80
2010,10,10,03,35,11.80
2010,10,10,03,36,11.70
2010,10,10,03,37,11.70
2010,10,10,03,38,11.70
2010,10,10,03,39,11.70
2010,10,10,03,40,11.70
2010,10,10,03,41,11.70
2010,10,10,03,42,11.70
2010,10,10,03,43,11.70
2010,10,10,03,44,11.70
2010,10,10,03,45,11.70
2010,10,10,03,46,11.60
2010,10,10,03,47,11.60
2010,10,10,03,48,11.60
2010,10,10,03,49,11.60
2010,10,10,03,50,11.50
2010,10,10,03,51,11.50
2010,10,10,03,52,11.40
2010,10,10,03,53,11.40
2010,10,10,03,54,11.40
2010,10,10,03,55,11.40
2010,10,10,03,56,11.40
2010,10,10,03,57,11.40
2010,10,10,03,58,11.50
2010,10,10,03,59,11.50
2010,10,10,04,00,11.60
2010,10,10,04,01,11.60
2010,10,10,04,02,11.60
2010,10,10,04,03,11.60
2010,10,10,04,04,11.70
2010,10,10,04,05,11.70
2010,10,10,04,06,11.70
2010,10,10,04,07,11.70
2010,10,10,04,08,11.70
2010,10,10,04,09,11.70
2010,10,10,04,10,11.70
2010,10,10,04,11,11.70
2010,10,10,04,12,11.70
2010,10,10,04,13,11.70
2010,10,10,04,14,11.70
2010,10,10,04,15,11.70
2010,10,10,04,16,11.60
2010,10,10,04,17,11.60
2010,10,10,04,18,11.60
2010,10,10,04,19,11.60
2010,10,10,04,20,11.60
2010,10,10,04,21,11.60
2010,10,10,04,22,11.50
2010,10,10,04,23,11.50
2010,10,10,04,24,11.50
2010,10,10,04,25,11.50
2010,10,10,04,26,11.60
2010,10,10,04,27,11.70
2010,10,10,04,28,11.70
2010,10,10,04,29,11.80
2010,10,10,04,30,11.80
2010,10,10,04,31,11.90
2010,10,10,04,32,12.00
2010,10,10,04,33,12.00
2010,10,10,04,34,12.10
2010,10,10,04,35,12.20
2010,10,10,04,36,12.20
2010,10,10,04,37,12.20
2010,10,10,04,38,12.30
2010,10,10,04,39,12.30
2010,10,10,04,40,12.30
2010,10,10,04,41,12.30
2010,10,10,04,42,12.30
2010,10,10,04,43,12.30
2010,10,10,04,44,12.30
2010,10,10,04,45,12.20
2010,10,10,04,46,12.20
2010,10,10,04,47,12.20
2010,10,10,04,48,12.20
2010,10,10,04,49,12.20
2010,10,10,04,50,12.20
2010,10,10,04,51,12.20
2010,10,10,04,52,12.20
2010,10,10,04,53,12.20
2010,10,10,04,54,12.20
2010,10,10,04,55,12.30
2010,10,10,04,56,12.30
2010,10,10,04,57,12.30
2010,10,10,04,58,12.30
2010,10,10,04,59,12.20
2010,10,10,05,00,12.20
2010,10,10,05,01,12.20
2010,10,10,05,02,12.20
2010,10,10,05,03,12.20
2010,10,10,05,04,12.20
2010,10,10,05,05,12.20
2010,10,10,05,06,12.20
2010,10,10,05,07,12.20
2010,10,10,05,08,12.20
2010,10,10,05,09,12.20
2010,10,10,05,10,12.20
2010,10,10,05,11,12.20
2010,10,10,05,12,12.20
2010,10,10,05,13,12.20
2010,10,10,05,14,12.20
2010,10,10,05,15,12.20
2010,10,10,05,16,12.30
2010,10,10,05,17,12.30
2010,10,10,05,18,12.30
2010,10,10,05,19,12.30
2010,10,10,05,20,12.40
2010,10,10,05,21,12.40
2010,10,10,05,22,12.40
2010,10,10,05,23,12.40
2010,10,10,05,24,12.40
2010,10,10,05,25,12.40
2010,10,10,05,26,12.40
2010,10,10,05,27,12.40
2010,10,10,05,28,12.40
2010,10,10,05,29,12.40
2010,10,10,05,30,12.40
2010,10,10,05,31,12.40
2010,10,10,05,32,12.40
2010,10,10,05,33,12.40
2010,10,10,05,34,12.40
2010,10,10,05,35,12.40
2010,10,10,05,36,12.40
2010,10,10,05,37,12.40
2010,10,10,05,38,12.40
2010,10,10,05,39,12.40
2010,10,10,05,40,12.40
2010,10,10,05,41,12.40
2010,10,10,05,42,12.40
2010,10,10,05,43,12.40
2010,10,10,05,44,12.40
2010,10,10,05,45,12.30
2010,10,10,05,46,12.30
2010,10,10,05,47,12.30
2010,10,10,05,48,12.30
2010,10,10,05,49,12.20
2010,10,10,05,50,12.20
2010,10,10,05,51,12.20
2010,10,10,05,52,12.20
2010,10,10,05,53,12.20
2010,10,10,05,54,12.20
2010,10,10,05,55,12.20
2010,10,10,05,56,12.10
2010,10,10,05,57,12.10
2010,10,10,05,58,12.10
2010,10,10,05,59,12.10
2010,10,10,06,00,12.10
2010,10,10,06,01,12.10
2010,10,10,06,02,12.10
2010,10,10,06,03,12.10
2010,10,10,06,04,12.10
2010,10,10,06,05,12.10
2010,10,10,06,06,12.00
2010,10,10,06,07,12.10
2010,10,10,06,08,12.10
2010,10,10,06,09,12.10
2010,10,10,06,10,12.10
2010,10,10,06,11,12.10
2010,10,10,06,12,12.10
2010,10,10,06,13,12.10
2010,10,10,06,14,12.10
2010,10,10,06,15,12.10
2010,10,10,06,16,12.10
2010,10,10,06,17,12.10
2010,10,10,06,18,12.10
2010,10,10,06,19,12.10
2010,10,10,06,20,12.00
2010,10,10,06,21,12.00
2010,10,10,06,22,12.00
2010,10,10,06,23,11.90
2010,10,10,06,24,11.80
2010,10,10,06,25,11.80
2010,10,10,06,26,11.70
2010,10,10,06,27,11.70
2010,10,10,06,28,11.70
2010,10,10,06,29,11.60
2010,10,10,06,30,11.60
2010,10,10,06,31,11.60
2010,10,10,06,32,11.60
2010,10,10,06,33,11.50
2010,10,10,06,34,11.50
2010,10,10,06,35,11.50
2010,10,10,06,36,11.40
2010,10,10,06,37,11.40
2010,10,10,06,38,11.40
2010,10,10,06,39,11.40
2010,10,10,06,40,11.40
2010,10,10,06,41,11.40
2010,10,10,06,42,11.40
2010,10,10,06,43,11.40
2010,10,10,06,44,11.40
2010,10,10,06,45,11.40
2010,10,10,06,46,11.40
2010,10,10,06,47,11.30
2010,10,10,06,48,11.30
2010,10,10,06,49,11.30
2010,10,10,06,50,11.30
2010,10,10,06,51,11.20
2010,10,10,06,52,11.20
2010,10,10,06,53,11.20
2010,10,10,06,54,11.30
2010,10,10,06,55,11.40
2010,10,10,06,56,11.40
2010,10,10,06,57,11.50
2010,10,10,06,58,11.50
2010,10,10,06,59,11.50
2010,10,10,07,00,11.50
2010,10,10,07,01,11.50
2010,10,10,07,02,11.50
2010,10,10,07,03,11.40
2010,10,10,07,04,11.40
2010,10,10,07,05,11.40
2010,10,10,07,06,11.40
2010,10,10,07,07,11.40
2010,10,10,07,08,11.40
2010,10,10,07,09,11.40
2010,10,10,07,10,11.40
2010,10,10,07,11,11.40
2010,10,10,07,12,11.50
2010,10,10,07,13,11.50
2010,10,10,07,14,11.50
2010,10,10,07,15,11.50
2010,10,10,07,16,11.50
2010,10,10,07,17,11.40
2010,10,10,07,18,11.40
2010,10,10,07,19,11.30
2010,10,10,07,20,11.30
2010,10,10,07,21,11.30
2010,10,10,07,22,11.30
2010,10,10,07,23,11.20
2010,10,10,07,24,11.20
2010,10,10,07,25,11.20
2010,10,10,07,26,11.10
2010,10,10,07,27,11.10
2010,10,10,07,28,11.10
2010,10,10,07,29,11.00
2010,10,10,07,30,11.00
2010,10,10,07,31,11.00
2010,10,10,07,32,10.90
2010,10,10,07,33,10.90
2010,10,10,07,34,10.90
2010,10,10,07,35,10.90
2010,10,10,07,36,10.90
2010,10,10,07,37,10.90
2010,10,10,07,38,10.90
2010,10,10,07,39,10.90
2010,10,10,07,40,10.90
2010,10,10,07,41,10.90
2010,10,10,07,42,10.90
2010,10,10,07,43,10.90
2010,10,10,07,44,10.90
2010,10,10,07,45,10.90
2010,10,10,07,46,10.90
2010,10,10,07,47,10.90
2010,10,10,07,48,10.80
2010,10,10,07,49,10.80
2010,10,10,07,50,10.80
2010,10,10,07,51,10.80
2010,10,10,07,52,10.80
2010,10,10,07,53,10.80
2010,10,10,07,54,10.80
2010,10,10,07,55,10.80
2010,10,10,07,56,10.80
2010,10,10,07,57,10.80
2010,10,10,07,58,10.80
2010,10,10,07,59,10.80
2010,10,10,08,00,10.80
2010,10,10,08,01,10.80
2010,10,10,08,02,10.80
2010,10,10,08,03,10.80
2010,10,10,08,04,10.80
2010,10,10,08,05,10.80
2010,10,10,08,06,10.80
2010,10,10,08,07,10.90
2010,10,10,08,08,10.90
2010,10,10,08,09,10.90
2010,10,10,08,10,10.90
2010,10,10,08,11,10.90
2010,10,10,08,12,11.00
2010,10,10,08,13,11.00
2010,10,10,08,14,11.00
2010,10,10,08,15,11.00
2010,10,10,08,16,11.10
2010,10,10,08,17,11.10
2010,10,10,08,18,11.10
2010,10,10,08,19,11.20
2010,10,10,08,20,11.20
2010,10,10,08,21,11.20
2010,10,10,08,22,11.20
2010,10,10,08,23,11.20
2010,10,10,08,24,11.20
2010,10,10,08,25,11.20
2010,10,10,08,26,11.30
2010,10,10,08,27,11.20
2010,10,10,08,28,11.30
2010,10,10,08,29,11.30
2010,10,10,08,30,11.30
2010,10,10,08,31,11.30
2010,10,10,08,32,11.30
2010,10,10,08,33,11.30
2010,10,10,08,34,11.30
2010,10,10,08,35,11.30
2010,10,10,08,36,11.30
2010,10,10,08,37,11.30
2010,10,10,08,38,11.30
2010,10,10,08,39,11.30
2010,10,10,08,40,11.30
2010,10,10,08,41,11.30
2010,10,10,08,42,11.30
2010,10,10,08,43,11.40
2010,10,10,08,44,11.40
2010,10,10,08,45,11.40
2010,10,10,08,46,11.40
2010,10,10,08,47,11.40
2010,10,10,08,48,11.40
2010,10,10,08,49,11.40
2010,10,10,08,50,11.40
2010,10,10,08,51,11.40
2010,10,10,08,52,11.40
2010,10,10,08,53,11.40
2010,10,10,08,54,11.40
2010,10,10,08,55,11.40
2010,10,10,08,56,11.40
2010,10,10,08,57,11.30
2010,10,10,08,58,11.30
2010,10,10,08,59,11.30
2010,10,10,09,00,11.30
2010,10,10,09,01,11.40
2010,10,10,09,02,11.40
2010,10,10,09,03,11.40
2010,10,10,09,04,11.40
2010,10,10,09,05,11.50
2010,10,10,09,06,11.50
2010,10,10,09,07,11.50
2010,10,10,09,08,11.50
2010,10,10,09,09,11.50
2010,10,10,09,10,11.50
2010,10,10,09,11,11.40
2010,10,10,09,12,11.40
2010,10,10,09,13,11.40
2010,10,10,09,14,11.40
2010,10,10,09,15,11.40
2010,10,10,09,16,11.40
2010,10,10,09,17,11.40
2010,10,10,09,18,11.40
2010,10,10,09,19,11.40
2010,10,10,09,20,11.40
2010,10,10,09,21,11.40
2010,10,10,09,22,11.40
2010,10,10,09,23,11.40
2010,10,10,09,24,11.40
2010,10,10,09,25,11.40
2010,10,10,09,26,11.40
2010,10,10,09,27,11.40
2010,10,10,09,28,11.40
2010,10,10,09,29,11.40
2010,10,10,09,30,11.50
2010,10,10,09,31,11.50
2010,10,10,09,32,11.50
2010,10,10,09,33,11.50
2010,10,10,09,34,11.50
2010,10,10,09,35,11.50
2010,10,10,09,36,11.60
2010,10,10,09,37,11.60
2010,10,10,09,38,11.60
2010,10,10,09,39,11.60
2010,10,10,09,40,11.50
2010,10,10,09,41,11.50
2010,10,10,09,42,11.50
2010,10,10,09,43,11.50
2010,10,10,09,44,11.50
2010,10,10,09,45,11.50
2010,10,10,09,46,11.50
2010,10,10,09,47,11.50
2010,10,10,09,48,11.60
2010,10,10,09,49,11.60
2010,10,10,09,50,11.60
2010,10,10,09,51,11.60
2010,10,10,09,52,11.60
2010,10,10,09,53,11.60
2010,10,10,09,54,11.60
2010,10,10,09,55,11.60
2010,10,10,09,56,11.70
2010,10,10,09,57,11.70
2010,10,10,09,58,11.70
2010,10,10,09,59,11.70
2010,10,10,10,00,11.80
2010,10,10,10,01,11.80
2010,10,10,10,02,11.80
2010,10,10,10,03,11.80
2010,10,10,10,04,11.80
2010,10,10,10,05,11.90
2010,10,10,10,06,11.90
2010,10,10,10,07,11.90
2010,10,10,10,08,11.90
2010,10,10,10,09,11.90
2010,10,10,10,10,12.00
2010,10,10,10,11,12.00
2010,10,10,10,12,12.00
2010,10,10,10,13,12.00
2010,10,10,10,14,12.00
2010,10,10,10,15,12.00
2010,10,10,10,16,12.10
2010,10,10,10,17,12.10
2010,10,10,10,18,12.10
2010,10,10,10,19,12.10
2010,10,10,10,20,12.10
2010,10,10,10,21,12.10
2010,10,10,10,22,12.20
2010,10,10,10,23,12.20
2010,10,10,10,24,12.20
2010,10,10,10,25,12.20
2010,10,10,10,26,12.20
2010,10,10,10,27,12.20
2010,10,10,10,28,12.20
2010,10,10,10,29,12.20
2010,10,10,10,30,12.20
2010,10,10,10,31,12.20
2010,10,10,10,32,12.20
2010,10,10,10,33,12.20
2010,10,10,10,34,12.20
2010,10,10,10,35,12.30
2010,10,10,10,36,12.30
2010,10,10,10,37,12.30
2010,10,10,10,38,12.30
2010,10,10,10,39,12.30
2010,10,10,10,40,12.30
2010,10,10,10,41,12.30
2010,10,10,10,42,12.30
2010,10,10,10,43,12.30
2010,10,10,10,44,12.30
2010,10,10,10,45,12.30
2010,10,10,10,46,12.30
2010,10,10,10,47,12.30
2010,10,10,10,48,12.40
2010,10,10,10,49,12.40
2010,10,10,10,50,12.50
2010,10,10,10,51,12.60
2010,10,10,10,52,12.70
2010,10,10,10,53,12.70
2010,10,10,10,54,12.80
2010,10,10,10,55,12.80
2010,10,10,10,56,12.90
2010,10,10,10,57,12.90
2010,10,10,10,58,12.90
2010,10,10,10,59,12.90
2010,10,10,11,00,13.00
2010,10,10,11,01,13.00
2010,10,10,11,02,13.00
2010,10,10,11,03,13.00
2010,10,10,11,04,13.10
2010,10,10,11,05,13.10
2010,10,10,11,06,13.10
2010,10,10,11,07,13.10
2010,10,10,11,08,13.20
2010,10,10,11,09,13.20
2010,10,10,11,10,13.20
2010,10,10,11,11,13.20
2010,10,10,11,12,13.20
2010,10,10,11,13,13.20
2010,10,10,11,14,13.20
2010,10,10,11,15,13.20
2010,10,10,11,16,13.20
2010,10,10,11,17,13.20
2010,10,10,11,18,13.20
2010,10,10,11,19,13.30
2010,10,10,11,20,13.30
2010,10,10,11,21,13.30
2010,10,10,11,22,13.30
2010,10,10,11,23,13.30
2010,10,10,11,24,13.40
2010,10,10,11,25,13.40
2010,10,10,11,26,13.50
2010,10,10,11,27,13.50
2010,10,10,11,28,13.60
2010,10,10,11,29,13.60
2010,10,10,11,30,13.70
2010,10,10,11,31,13.70
2010,10,10,11,32,13.80
2010,10,10,11,33,13.80
2010,10,10,11,34,13.90
2010,10,10,11,35,13.90
2010,10,10,11,36,14.00
2010,10,10,11,37,14.00
2010,10,10,11,38,14.00
2010,10,10,11,39,14.10
2010,10,10,11,40,14.10
2010,10,10,11,41,14.10
2010,10,10,11,42,14.10
2010,10,10,11,43,14.10
2010,10,10,11,44,14.10
2010,10,10,11,45,14.10
2010,10,10,11,46,14.10
2010,10,10,11,47,14.10
2010,10,10,11,48,14.10
2010,10,10,11,49,14.10
2010,10,10,11,50,14.20
2010,10,10,11,51,14.20
2010,10,10,11,52,14.20
2010,10,10,11,53,14.20
2010,10,10,11,54,14.20
2010,10,10,11,55,14.20
2010,10,10,11,56,14.30
2010,10,10,11,57,14.30
2010,10,10,11,58,14.30
2010,10,10,11,59,14.30
2010,10,10,12,00,14.30
2010,10,10,12,01,14.30
2010,10,10,12,02,14.30
2010,10,10,12,03,14.40
2010,10,10,12,04,14.40
2010,10,10,12,05,14.40
2010,10,10,12,06,14.40
2010,10,10,12,07,14.40
2010,10,10,12,08,14.40
2010,10,10,12,09,14.40
2010,10,10,12,10,14.50
2010,10,10,12,11,14.50
2010,10,10,12,12,14.50
2010,10,10,12,13,14.60
2010,10,10,12,14,14.60
2010,10,10,12,15,14.60
2010,10,10,12,16,14.60
2010,10,10,12,17,14.60
2010,10,10,12,18,14.60
2010,10,10,12,19,14.60
2010,10,10,12,20,14.60
2010,10,10,12,21,14.60
2010,10,10,12,22,14.70
2010,10,10,12,23,14.70
2010,10,10,12,24,14.70
2010,10,10,12,25,14.70
2010,10,10,12,26,14.70
2010,10,10,12,27,14.70
2010,10,10,12,28,14.70
2010,10,10,12,29,14.70
2010,10,10,12,30,14.70
2010,10,10,12,31,14.80
2010,10,10,12,32,14.80
2010,10,10,12,33,14.90
2010,10,10,12,34,14.90
2010,10,10,12,35,14.90
2010,10,10,12,36,15.00
2010,10,10,12,37,15.00
2010,10,10,12,38,15.00
2010,10,10,12,39,15.00
2010,10,10,12,40,15.00
2010,10,10,12,41,15.00
2010,10,10,12,42,15.00
2010,10,10,12,43,15.00
2010,10,10,12,44,15.00
2010,10,10,12,45,15.00
2010,10,10,12,46,15.00
2010,10,10,12,47,15.00
2010,10,10,12,48,15.00
2010,10,10,12,49,15.00
2010,10,10,12,50,15.00
2010,10,10,12,51,15.00
2010,10,10,12,52,15.00
2010,10,10,12,53,15.00
2010,10,10,12,54,15.10
2010,10,10,12,55,15.00
2010,10,10,12,56,15.00
2010,10,10,12,57,15.00
2010,10,10,12,58,15.00
2010,10,10,12,59,15.00
2010,10,10,13,00,15.00
2010,10,10,13,01,15.10
2010,10,10,13,02,15.10
2010,10,10,13,03,15.10
2010,10,10,13,04,15.20
2010,10,10,13,05,15.20
2010,10,10,13,06,15.20
2010,10,10,13,07,15.20
2010,10,10,13,08,15.30
2010,10,10,13,09,15.30
2010,10,10,13,10,15.30
2010,10,10,13,11,15.30
2010,10,10,13,12,15.30
2010,10,10,13,13,15.30
2010,10,10,13,14,15.30
2010,10,10,13,15,15.30
2010,10,10,13,16,15.30
2010,10,10,13,17,15.40
2010,10,10,13,18,15.50
2010,10,10,13,19,15.50
2010,10,10,13,20,15.50
2010,10,10,13,21,15.50
2010,10,10,13,22,15.50
2010,10,10,13,23,15.50
2010,10,10,13,24,15.60
2010,10,10,13,25,15.60
2010,10,10,13,26,15.60
2010,10,10,13,27,15.60
2010,10,10,13,28,15.60
2010,10,10,13,29,15.60
2010,10,10,13,30,15.60
2010,10,10,13,31,15.60
2010,10,10,13,32,15.70
2010,10,10,13,33,15.70
2010,10,10,13,34,15.70
2010,10,10,13,35,15.70
2010,10,10,13,36,15.70
2010,10,10,13,37,15.60
2010,10,10,13,38,15.60
2010,10,10,13,39,15.60
2010,10,10,13,40,15.60
2010,10,10,13,41,15.60
2010,10,10,13,42,15.60
2010,10,10,13,43,15.60
2010,10,10,13,44,15.70
2010,10,10,13,45,15.70
2010,10,10,13,46,15.70
2010,10,10,13,47,15.70
2010,10,10,13,48,15.70
2010,10,10,13,49,15.70
2010,10,10,13,50,15.80
2010,10,10,13,51,15.80
2010,10,10,13,52,15.80
2010,10,10,13,53,15.80
2010,10,10,13,54,15.80
2010,10,10,13,55,15.80
2010,10,10,13,56,15.90
2010,10,10,13,57,15.90
2010,10,10,13,58,15.80
2010,10,10,13,59,15.80
2010,10,10,14,00,15.80
2010,10,10,14,01,15.70
2010,10,10,14,02,15.70
2010,10,10,14,03,15.70
2010,10,10,14,04,15.70
2010,10,10,14,05,15.70
2010,10,10,14,06,15.70
2010,10,10,14,07,15.70
2010,10,10,14,08,15.70
2010,10,10,14,09,15.80
2010,10,10,14,10,15.80
2010,10,10,14,11,15.80
2010,10,10,14,12,15.80
2010,10,10,14,13,15.80
2010,10,10,14,14,15.80
2010,10,10,14,15,15.80
2010,10,10,14,16,15.80
2010,10,10,14,17,15.80
2010,10,10,14,18,15.80
2010,10,10,14,19,15.80
2010,10,10,14,20,15.80
2010,10,10,14,21,15.90
2010,10,10,14,22,15.90
2010,10,10,14,23,15.90
2010,10,10,14,24,15.90
2010,10,10,14,25,15.90
2010,10,10,14,26,15.90
2010,10,10,14,27,15.90
2010,10,10,14,28,15.90
2010,10,10,14,29,15.90
2010,10,10,14,30,15.90
2010,10,10,14,31,16.00
2010,10,10,14,32,16.00
2010,10,10,14,33,16.00
2010,10,10,14,34,16.00
2010,10,10,14,35,16.00
2010,10,10,14,36,15.90
2010,10,10,14,37,15.90
2010,10,10,14,38,15.90
2010,10,10,14,39,15.90
2010,10,10,14,40,15.90
2010,10,10,14,41,16.00
2010,10,10,14,42,16.00
2010,10,10,14,43,16.00
2010,10,10,14,44,16.00
2010,10,10,14,45,16.00
2010,10,10,14,46,16.00
2010,10,10,14,47,15.90
2010,10,10,14,48,15.90
2010,10,10,14,49,15.90
2010,10,10,14,50,15.80
2010,10,10,14,51,15.80
2010,10,10,14,52,15.80
2010,10,10,14,53,15.80
2010,10,10,14,54,15.80
2010,10,10,14,55,15.80
2010,10,10,14,56,15.80
2010,10,10,14,57,15.80
2010,10,10,14,58,15.80
2010,10,10,14,59,15.80
2010,10,10,15,00,15.80
2010,10,10,15,01,15.80
2010,10,10,15,02,15.80
2010,10,10,15,03,15.80
2010,10,10,15,04,15.80
2010,10,10,15,05,15.80
2010,10,10,15,06,15.80
2010,10,10,15,07,15.80
2010,10,10,15,08,15.70
2010,10,10,15,09,15.70
2010,10,10,15,10,15.70
2010,10,10,15,11,15.70
2010,10,10,15,12,15.70
2010,10,10,15,13,15.60
2010,10,10,15,14,15.60
2010,10,10,15,15,15.60
2010,10,10,15,16,15.60
2010,10,10,15,17,15.60
2010,10,10,15,18,15.60
2010,10,10,15,19,15.60
2010,10,10,15,20,15.50
2010,10,10,15,21,15.50
2010,10,10,15,22,15.50
2010,10,10,15,23,15.50
2010,10,10,15,24,15.40
2010,10,10,15,25,15.40
2010,10,10,15,26,15.40
2010,10,10,15,27,15.40
2010,10,10,15,28,15.40
2010,10,10,15,29,15.40
2010,10,10,15,30,15.30
2010,10,10,15,31,15.30
2010,10,10,15,32,15.20
2010,10,10,15,33,15.20
2010,10,10,15,34,15.20
2010,10,10,15,35,15.10
2010,10,10,15,36,15.10
2010,10,10,15,37,15.00
2010,10,10,15,38,15.10
2010,10,10,15,39,15.10
2010,10,10,15,40,15.20
2010,10,10,15,41,15.20
2010,10,10,15,42,15.20
2010,10,10,15,43,15.20
2010,10,10,15,44,15.10
2010,10,10,15,45,15.10
2010,10,10,15,46,15.00
2010,10,10,15,47,15.00
2010,10,10,15,48,15.10
2010,10,10,15,49,15.10
2010,10,10,15,50,15.10
2010,10,10,15,51,15.10
2010,10,10,15,52,15.10
2010,10,10,15,53,15.10
2010,10,10,15,54,15.10
2010,10,10,15,55,15.10
2010,10,10,15,56,15.10
2010,10,10,15,57,15.10
2010,10,10,15,58,15.20
2010,10,10,15,59,15.20
2010,10,10,16,00,15.20
2010,10,10,16,01,15.30
2010,10,10,16,02,15.30
2010,10,10,16,03,15.30
2010,10,10,16,04,15.30
2010,10,10,16,05,15.30
2010,10,10,16,06,15.30
2010,10,10,16,07,15.30
2010,10,10,16,08,15.30
2010,10,10,16,09,15.30
2010,10,10,16,10,15.30
2010,10,10,16,11,15.30
2010,10,10,16,12,15.30
2010,10,10,16,13,15.30
2010,10,10,16,14,15.30
2010,10,10,16,15,15.30
2010,10,10,16,16,15.20
2010,10,10,16,17,15.20
2010,10,10,16,18,15.20
2010,10,10,16,19,15.20
2010,10,10,16,20,15.10
2010,10,10,16,21,15.10
2010,10,10,16,22,15.10
2010,10,10,16,23,15.10
2010,10,10,16,24,15.10
2010,10,10,16,25,15.10
2010,10,10,16,26,15.10
2010,10,10,16,27,15.10
2010,10,10,16,28,15.00
2010,10,10,16,29,15.00
2010,10,10,16,30,15.00
2010,10,10,16,31,15.10
2010,10,10,16,32,15.10
2010,10,10,16,33,15.10
2010,10,10,16,34,15.20
2010,10,10,16,35,15.20
2010,10,10,16,36,15.20
2010,10,10,16,37,15.20
2010,10,10,16,38,15.20
2010,10,10,16,39,15.20
2010,10,10,16,40,15.20
2010,10,10,16,41,15.20
2010,10,10,16,42,15.20
2010,10,10,16,43,15.20
2010,10,10,16,44,15.20
2010,10,10,16,45,15.20
2010,10,10,16,46,15.20
2010,10,10,16,47,15.20
2010,10,10,16,48,15.10
2010,10,10,16,49,15.10
2010,10,10,16,50,15.10
2010,10,10,16,51,15.10
2010,10,10,16,52,15.00
2010,10,10,16,53,15.00
2010,10,10,16,54,15.00
2010,10,10,16,55,15.00
2010,10,10,16,56,15.00
2010,10,10,16,57,15.00
2010,10,10,16,58,14.90
2010,10,10,16,59,14.90
2010,10,10,17,00,14.80
2010,10,10,17,01,14.70
2010,10,10,17,02,14.70
2010,10,10,17,03,14.70
2010,10,10,17,04,14.60
2010,10,10,17,05,14.50
2010,10,10,17,06,14.50
2010,10,10,17,07,14.40
2010,10,10,17,08,14.40
2010,10,10,17,09,14.40
2010,10,10,17,10,14.40
2010,10,10,17,11,14.30
2010,10,10,17,12,14.30
2010,10,10,17,13,14.20
2010,10,10,17,14,14.20
2010,10,10,17,15,14.10
2010,10,10,17,16,14.10
2010,10,10,17,17,14.10
2010,10,10,17,18,14.00
2010,10,10,17,19,14.00